Location: Bailleul
(50.3375°N, 2.8513°E)
Time: 05:16:12
(UTC+00:00)

Cosmos 2016 Rocket - Pass Details

Date: 30 October 2021
Orbit: 946 x 1001 km, 83.0° (Epoch: 27 November)

Event Time Altitude Azimuth Distance (km) Brightness Sun altitude
Rises 18:11:12 0° 161° (SSE) 3,643 6.8 -16.9°
Reaches altitude 10° 18:13:52 10° 153° (SSE) 2,693 6.1 -17.4°
Maximum altitude 18:19:26 38° 88° (E) 1,427 4.3 -18.3°
Drops below altitude 10° 18:25:00 10° 23° (NNE) 2,685 6.1 -19.1°
Sets 18:27:39 0° 15° (NNE) 3,632 6.9 -19.6°
